I0ABU Sezze IT current weather conditions

sailwx.info

Wind from 024 at 3 knots gusting 4

Air temperature 21.1° C
Dewpoint 15.2° C

Last reported at 2019-Sep-16 21:00 UTC.
Time now 2019-Sep-16 22:11 UTC

Location: N 41°30' E 013°04'.
View on Google Maps.

See reports from other nearby stations

  
Tides and Currents Weather Stations Pressure Air Temp Water Temp Dewpoint Dewpoint Depression Visibility Wind Speed Wind Dir Waves Ship Positions
date/time (UTC)wind fromknots sea level pressurealtimeterstation pressurevisibilityair tempwater tempwave heightnotes
2019-Sep-16 21:00 024 3 gusting 4 21.1
2019-Sep-16 20:55 025 2 gusting 4 21.1
2019-Sep-16 20:50 026 2 gusting 6 20.6
2019-Sep-16 20:45 029 2 gusting 6 20.6
2019-Sep-16 20:40 038 5 gusting 6 20.6
2019-Sep-16 20:35 022 2 gusting 4 20.6
2019-Sep-16 20:30 035 3 gusting 4 21.1
2019-Sep-16 20:25 049 3 gusting 4 21.1
2019-Sep-16 20:20 046 3 gusting 4 20.6
2019-Sep-16 20:15 047 1 gusting 4 20.6
2019-Sep-16 20:10 034 2 gusting 4 21.1
2019-Sep-16 20:05 046 2 gusting 4 21.1
2019-Sep-16 20:00 044 3 gusting 4 20.6
2019-Sep-16 19:55 048 2 gusting 4 20.6
2019-Sep-16 19:50 049 2 gusting 4 20.6
2019-Sep-16 19:45 026 4 gusting 4 20.6
2019-Sep-16 19:40 018 2 gusting 4 20.6
2019-Sep-16 19:35 019 3 gusting 3 20.6
2019-Sep-16 19:30 019 2 gusting 4 21.1
2019-Sep-16 19:25 017 2 gusting 4 21.1
2019-Sep-16 19:20 017 3 gusting 4 21.1
2019-Sep-16 19:15 017 2 gusting 3 21.1
2019-Sep-16 19:10 017 2 gusting 3 21.1
2019-Sep-16 19:05 017 2 gusting 3 21.7
2019-Sep-16 19:00 017 3 gusting 4 21.7
2019-Sep-16 18:55 355 1 gusting 4 21.7
2019-Sep-16 18:50 005 4 gusting 4 21.7
2019-Sep-16 18:45 183 2 gusting 2 21.7
2019-Sep-16 18:40 183 1 gusting 1 21.7
2019-Sep-16 18:35 183 21.7
2019-Sep-16 18:30 183 21.7
2019-Sep-16 18:25 183 0 gusting 1 21.7
2019-Sep-16 18:20 183 22.2
2019-Sep-16 18:15 183 22.2
2019-Sep-16 18:10 183 22.2
2019-Sep-16 18:05 183 0 gusting 1 22.2
2019-Sep-16 18:00 183 0 gusting 1 22.2
2019-Sep-16 17:55 183 1 gusting 1 22.2
2019-Sep-16 17:50 183 1 gusting 2 22.2
2019-Sep-16 17:45 183 1 gusting 3 22.2
2019-Sep-16 17:40 183 1 gusting 3 22.2
2019-Sep-16 17:35 183 3 gusting 3 22.8
2019-Sep-16 17:30 183 2 gusting 3 22.8
2019-Sep-16 17:25 183 2 gusting 3 22.8
2019-Sep-16 17:20 183 2 gusting 4 22.8
2019-Sep-16 17:15 205 2 gusting 4 22.8
2019-Sep-16 17:10 184 1 gusting 5 23.3
2019-Sep-16 17:05 185 2 gusting 5 23.3
2019-Sep-16 17:00 207 3 gusting 6 23.3
2019-Sep-16 16:55 209 5 gusting 6 23.3
2019-Sep-16 16:50 197 3 gusting 5 23.9
2019-Sep-16 16:45 171 4 gusting 6 23.9
2019-Sep-16 16:40 198 5 gusting 6 23.9
2019-Sep-16 16:35 201 5 gusting 6 23.9
2019-Sep-16 16:30 220 5 gusting 8 23.9
2019-Sep-16 16:25 188 6 gusting 7 24.4
2019-Sep-16 16:20 184 5 gusting 7 24.4
2019-Sep-16 16:15 204 6 gusting 8 24.4
2019-Sep-16 16:10 207 7 gusting 9 24.4
2019-Sep-16 16:05 186 6 gusting 7 24.4
2019-Sep-16 16:00 188 6 gusting 9 24.4
2019-Sep-16 15:55 178 7 gusting 9 24.4
2019-Sep-16 15:50 207 5 gusting 12 24.4
2019-Sep-16 15:45 213 6 gusting 10 25.0
2019-Sep-16 15:40 180 8 gusting 11 25.0
2019-Sep-16 15:35 205 6 gusting 10 25.0
2019-Sep-16 15:30 156 6 gusting 10 25.0
2019-Sep-16 15:25 200 8 gusting 13 25.0
2019-Sep-16 15:20 197 5 gusting 10 25.0
2019-Sep-16 15:15 182 6 gusting 10 25.0
2019-Sep-16 15:10 176 7 gusting 9 25.0
2019-Sep-16 15:05 204 7 gusting 11 25.0
2019-Sep-16 15:00 198 10 gusting 12 25.0
2019-Sep-16 14:55 201 10 gusting 11 25.6
2019-Sep-16 14:50 178 7 gusting 12 25.6
2019-Sep-16 14:45 205 7 gusting 11 25.6
2019-Sep-16 14:40 194 8 gusting 13 25.6
2019-Sep-16 14:35 192 8 gusting 12 25.6
2019-Sep-16 14:30 186 7 gusting 13 25.6
2019-Sep-16 14:25 200 7 gusting 12 26.1
2019-Sep-16 14:20 198 7 gusting 13 26.1
2019-Sep-16 14:15 182 6 gusting 13 25.6
2019-Sep-16 14:10 191 6 gusting 13 26.1
2019-Sep-16 14:05 197 7 gusting 13 26.1
2019-Sep-16 14:00 223 10 gusting 13 26.1
2019-Sep-16 13:55 220 6 gusting 13 26.1
2019-Sep-16 13:50 191 9 gusting 15 26.1
2019-Sep-16 13:45 211 6 gusting 10 26.1
2019-Sep-16 13:40 194 5 gusting 13 26.7
2019-Sep-16 13:35 154 8 gusting 12 26.7
2019-Sep-16 13:30 142 5 gusting 9 26.1
2019-Sep-16 13:25 200 9 gusting 13 26.1
2019-Sep-16 13:20 198 7 gusting 10 26.1
2019-Sep-16 13:15 179 7 gusting 11 26.1
2019-Sep-16 13:10 213 10 gusting 12 26.1
2019-Sep-16 13:05 180 4 gusting 9 26.1
2019-Sep-16 13:00 200 10 gusting 12 26.1
2019-Sep-16 12:55 193 10 gusting 13 26.1
2019-Sep-16 12:50 195 9 gusting 12 26.1
2019-Sep-16 12:45 198 7 gusting 12 26.7
2019-Sep-16 12:40 211 7 gusting 11 26.7
2019-Sep-16 12:35 160 7 gusting 12 26.7
2019-Sep-16 12:30 194 8 gusting 15 26.7
2019-Sep-16 12:25 219 8 gusting 14 26.1
2019-Sep-16 12:20 196 10 gusting 16 26.7
2019-Sep-16 12:15 199 3 gusting 12 26.7
2019-Sep-16 12:10 211 9 gusting 14 26.7
2019-Sep-16 12:05 147 5 gusting 12 26.7
2019-Sep-16 12:00 219 4 gusting 12 26.1
2019-Sep-16 11:55 208 6 gusting 13 26.1
2019-Sep-16 11:50 213 4 gusting 13 26.1
2019-Sep-16 11:45 187 8 gusting 13 26.7
2019-Sep-16 11:40 241 8 gusting 13 26.7
2019-Sep-16 11:35 198 10 gusting 13 26.1
2019-Sep-16 11:30 202 6 gusting 12 26.1
2019-Sep-16 11:25 205 7 gusting 12 26.1
2019-Sep-16 11:20 207 5 gusting 13 26.1
2019-Sep-16 11:15 165 7 gusting 12 26.7
2019-Sep-16 11:10 187 10 gusting 15 26.1
2019-Sep-16 11:05 181 9 gusting 12 26.1
2019-Sep-16 11:00 194 8 gusting 12 26.7
2019-Sep-16 10:55 230 3 gusting 8 26.7
2019-Sep-16 10:50 262 3 gusting 6 26.1
2019-Sep-16 10:45 167 7 gusting 9 26.1
2019-Sep-16 10:40 169 5 gusting 9 26.1
2019-Sep-16 10:35 174 6 gusting 9 26.1
2019-Sep-16 10:30 231 5 gusting 10 26.1
2019-Sep-16 10:25 172 4 gusting 13 26.1
2019-Sep-16 10:20 200 7 gusting 10 26.1
2019-Sep-16 10:15 103 0 gusting 9 26.1
2019-Sep-16 10:10 201 5 gusting 9 26.1
2019-Sep-16 10:05 202 2 gusting 7 25.6
2019-Sep-16 10:00 180 4 gusting 6 25.6
2019-Sep-16 09:55 167 4 gusting 9 25.6
2019-Sep-16 09:50 215 5 gusting 9 25.6
2019-Sep-16 09:45 188 6 gusting 7 25.6
2019-Sep-16 09:40 189 1 gusting 6 25.0
2019-Sep-16 09:35 200 6 gusting 7 25.0
2019-Sep-16 09:30 181 3 gusting 10 25.0
2019-Sep-16 09:25 188 3 gusting 7 25.0
2019-Sep-16 09:20 215 6 gusting 8 25.0
2019-Sep-16 09:15 182 4 gusting 9 24.4
2019-Sep-16 09:10 215 3 gusting 6 24.4
2019-Sep-16 09:05 163 3 gusting 6 24.4
2019-Sep-16 09:00 179 3 gusting 7 24.4
2019-Sep-16 08:55 178 3 gusting 6 24.4
2019-Sep-16 08:50 200 2 gusting 6 24.4
2019-Sep-16 08:45 169 4 gusting 6 24.4
2019-Sep-16 08:40 171 6 gusting 6 23.9
2019-Sep-16 08:35 246 6 gusting 7 23.9
2019-Sep-16 08:30 188 4 gusting 6 23.9
2019-Sep-16 08:25 196 3 gusting 6 23.9
2019-Sep-16 08:20 172 2 gusting 6 23.9
2019-Sep-16 08:15 207 5 gusting 6 23.9
2019-Sep-16 08:10 184 2 gusting 5 23.9
2019-Sep-16 08:05 177 2 gusting 6 23.3
2019-Sep-16 08:00 156 1 gusting 6 23.3
2019-Sep-16 07:55 229 2 gusting 6 23.3
2019-Sep-16 07:50 209 5 gusting 5 23.3
2019-Sep-16 07:45 190 0 gusting 5 23.3
2019-Sep-16 07:40 171 1 gusting 4 23.3
2019-Sep-16 07:35 215 3 gusting 5 23.3
2019-Sep-16 07:30 211 3 gusting 4 23.3
2019-Sep-16 07:25 163 0 gusting 4 23.3
2019-Sep-16 07:20 171 3 gusting 4 23.3
2019-Sep-16 07:15 147 1 gusting 4 23.3
2019-Sep-16 07:10 185 1 gusting 4 23.3
2019-Sep-16 07:05 034 0 gusting 1 23.3
2019-Sep-16 07:00 034 23.3
2019-Sep-16 06:55 034 0 gusting 0 23.3
2019-Sep-16 06:50 034 22.8
2019-Sep-16 06:45 034 0 gusting 2 22.2
2019-Sep-16 06:40 034 2 gusting 2 21.7
2019-Sep-16 06:35 034 0 gusting 0 21.7
2019-Sep-16 06:30 034 0 gusting 0 21.1
2019-Sep-16 06:25 034 0 gusting 1 21.1
2019-Sep-16 06:20 034 0 gusting 2 20.6
2019-Sep-16 06:15 034 2 gusting 2 20.6
2019-Sep-16 06:10 034 2 gusting 2 20.6
2019-Sep-16 06:05 034 2 gusting 2 20.6
2019-Sep-16 06:00 034 0 gusting 2 20.6
2019-Sep-16 05:55 034 2 gusting 3 20.6
2019-Sep-16 05:50 185 0 gusting 1 20.6
2019-Sep-16 05:45 185 0 gusting 1 20.6
2019-Sep-16 05:40 185 20.6
2019-Sep-16 05:35 185 20.6
2019-Sep-16 05:30 185 20.6
2019-Sep-16 05:25 185 20.6
2019-Sep-16 05:20 185 0 gusting 1 20.6
2019-Sep-16 05:15 185 1 gusting 1 20.6
2019-Sep-16 05:10 185 0 gusting 1 20.6
2019-Sep-16 05:05 185 20.6
2019-Sep-16 05:00 185 21.1
2019-Sep-16 04:55 185 21.1
2019-Sep-16 04:50 185 0 gusting 0 21.1
2019-Sep-16 04:45 185 21.1
2019-Sep-16 04:40 185 21.1
2019-Sep-16 04:35 185 0 gusting 4 21.1
2019-Sep-16 04:30 277 1 gusting 1 21.1
2019-Sep-16 04:25 284 0 gusting 2 21.1
2019-Sep-16 04:20 286 21.1
2019-Sep-16 04:15 286 21.1
2019-Sep-16 04:10 286 21.7
2019-Sep-16 04:05 286 0 gusting 1 21.7
2019-Sep-16 04:00 286 0 gusting 2 21.7
2019-Sep-16 03:55 286 0 gusting 2 21.1
2019-Sep-16 03:50 287 1 gusting 2 21.1
2019-Sep-16 03:45 325 1 gusting 1 21.1
2019-Sep-16 03:40 325 1 gusting 2 21.1
2019-Sep-16 03:35 325 1 gusting 2 21.1
2019-Sep-16 03:30 019 1 gusting 2 21.1
2019-Sep-16 03:25 020 0 gusting 1 21.1
2019-Sep-16 03:20 020 1 gusting 1 21.1
2019-Sep-16 03:15 020 0 gusting 1 21.1
2019-Sep-16 03:10 020 0 gusting 2 21.1
2019-Sep-16 03:05 020 1 gusting 2 21.1
2019-Sep-16 03:00 020 1 gusting 4 21.1
2019-Sep-16 02:55 017 3 gusting 4 21.1
2019-Sep-16 02:50 022 2 gusting 4 21.1
2019-Sep-16 02:45 023 3 gusting 4 21.1
2019-Sep-16 02:40 047 2 gusting 2 21.7
2019-Sep-16 02:35 047 1 gusting 3 21.7
2019-Sep-16 02:30 044 1 gusting 3 21.7
2019-Sep-16 02:25 043 2 gusting 4 21.7
2019-Sep-16 02:20 048 3 gusting 4 21.7
2019-Sep-16 02:15 042 3 gusting 4 21.1
2019-Sep-16 02:10 044 2 gusting 3 21.1
2019-Sep-16 02:05 028 2 gusting 4 21.1
2019-Sep-16 02:00 022 3 gusting 5 21.1
2019-Sep-16 01:55 013 4 gusting 6 21.1
2019-Sep-16 01:50 009 3 gusting 6 21.1
2019-Sep-16 01:45 022 4 gusting 6 21.1
2019-Sep-16 01:40 018 6 gusting 6 21.7
2019-Sep-16 01:35 030 2 gusting 6 21.1
2019-Sep-16 01:30 018 3 gusting 4 21.1
2019-Sep-16 01:25 028 3 gusting 4 21.1
2019-Sep-16 01:20 046 3 gusting 4 21.1
2019-Sep-16 01:15 032 3 gusting 5 21.7
2019-Sep-16 01:10 030 3 gusting 5 21.7
2019-Sep-16 01:05 048 3 gusting 5 21.7
2019-Sep-16 01:00 045 4 gusting 5 21.7
2019-Sep-16 00:55 036 2 gusting 5 21.7
2019-Sep-16 00:50 049 2 gusting 6 22.2
2019-Sep-16 00:45 044 3 gusting 6 22.2
2019-Sep-16 00:40 049 4 gusting 5 21.7
2019-Sep-16 00:35 032 4 gusting 5 21.7
2019-Sep-16 00:30 069 4 gusting 6 21.7
2019-Sep-16 00:25 025 3 gusting 5 21.1
2019-Sep-16 00:20 017 3 gusting 4 21.1
2019-Sep-16 00:15 019 4 gusting 5 21.1
2019-Sep-16 00:10 040 3 gusting 5 21.1
2019-Sep-16 00:05 024 3 gusting 6 21.7
2019-Sep-16 00:00 033 3 gusting 6 21.7
2019-Sep-15 23:55 015 3 gusting 7 21.7
2019-Sep-15 23:50 021 6 gusting 6 21.7
2019-Sep-15 23:45 041 4 gusting 6 21.7
2019-Sep-15 23:40 028 4 gusting 6 21.7
2019-Sep-15 23:35 031 3 gusting 6 21.1
2019-Sep-15 23:30 019 3 gusting 6 21.1
2019-Sep-15 23:25 019 3 gusting 5 21.1
2019-Sep-15 23:20 034 3 gusting 6 21.1
2019-Sep-15 23:15 015 4 gusting 6 21.1
2019-Sep-15 23:10 028 3 gusting 4 21.1
2019-Sep-15 23:05 026 3 gusting 4 21.1
2019-Sep-15 23:00 024 3 gusting 4 21.1
2019-Sep-15 22:55 025 3 gusting 4 21.1
2019-Sep-15 22:50 020 3 gusting 4 21.1
2019-Sep-15 22:45 022 2 gusting 4 21.1
2019-Sep-15 22:40 026 3 gusting 4 21.1
2019-Sep-15 22:35 034 2 gusting 3 21.1
2019-Sep-15 22:30 031 1 gusting 3 21.7
2019-Sep-15 22:25 027 2 gusting 3 21.7
2019-Sep-15 22:20 027 3 gusting 4 21.7
2019-Sep-15 22:15 024 2 gusting 4 21.7
2019-Sep-15 22:10 026 3 gusting 6 21.7
2019-Sep-15 22:05 019 3 gusting 4 21.7
2019-Sep-15 22:00 015 3 gusting 6 21.7
2019-Sep-15 21:55 017 3 gusting 6 21.7
2019-Sep-15 21:50 013 3 gusting 6 21.1
2019-Sep-15 21:45 019 6 gusting 6 21.1
2019-Sep-15 21:40 024 3 gusting 6 21.1
2019-Sep-15 21:35 022 2 gusting 4 21.7
2019-Sep-15 21:30 030 2 gusting 5 21.7
2019-Sep-15 21:25 028 3 gusting 4 21.7
2019-Sep-15 21:20 028 3 gusting 4 21.7
2019-Sep-15 21:15 028 3 gusting 5 21.7
2019-Sep-15 21:10 039 4 gusting 6 21.7
2019-Sep-15 21:05 019 4 gusting 6 21.7
2019-Sep-15 21:00 019 6 gusting 6 21.7
2019-Sep-15 20:55 018 4 gusting 6 21.7
2019-Sep-15 20:50 017 4 gusting 6 21.7
2019-Sep-15 20:45 016 4 gusting 6 21.7
2019-Sep-15 20:40 035 2 gusting 5 21.7
2019-Sep-15 20:35 033 3 gusting 5 21.7
2019-Sep-15 20:30 040 3 gusting 5 21.7
2019-Sep-15 20:25 042 2 gusting 4 21.7
2019-Sep-15 20:20 035 2 gusting 4 21.7
2019-Sep-15 20:15 034 3 gusting 4 21.7
2019-Sep-15 20:10 036 3 gusting 4 21.7
2019-Sep-15 20:05 046 3 gusting 4 21.7
2019-Sep-15 20:00 027 2 gusting 3 21.7
2019-Sep-15 19:55 025 3 gusting 3 21.7
2019-Sep-15 19:50 024 3 gusting 6 21.7
2019-Sep-15 19:45 015 4 gusting 6 21.7
2019-Sep-15 19:40 032 3 gusting 4 21.7
2019-Sep-15 19:35 026 3 gusting 6 22.2
2019-Sep-15 19:30 024 4 gusting 6 22.2
2019-Sep-15 19:25 009 4 gusting 4 22.2
2019-Sep-15 19:20 009 3 gusting 6 22.8
2019-Sep-15 19:15 015 4 gusting 4 22.8
2019-Sep-15 19:10 023 3 gusting 5 22.8
2019-Sep-15 19:05 005 3 gusting 7 22.8
2019-Sep-15 19:00 305 1 gusting 3 23.3
2019-Sep-15 18:55 355 3 gusting 7 22.8
2019-Sep-15 18:50 012 3 gusting 6 22.8
2019-Sep-15 18:45 005 4 gusting 6 22.8
2019-Sep-15 18:40 017 1 gusting 3 23.3
2019-Sep-15 18:35 23.3
2019-Sep-15 18:30 005 3 gusting 4 23.3
2019-Sep-15 18:25 336 1 gusting 2 23.3
2019-Sep-15 18:20 279 23.3
2019-Sep-15 18:15 23.3
2019-Sep-15 18:10 005 0 gusting 7 23.3
2019-Sep-15 18:05 005 2 gusting 4 23.9
2019-Sep-15 18:00 338 4 gusting 6 23.9
2019-Sep-15 17:55 296 3 gusting 6 23.9
2019-Sep-15 17:50 318 1 gusting 6 23.9
2019-Sep-15 17:45 306 3 gusting 6 23.9
2019-Sep-15 17:40 286 0 gusting 6 24.4
2019-Sep-15 17:35 277 2 gusting 5 24.4
2019-Sep-15 17:30 263 1 gusting 6 24.4
2019-Sep-15 17:25 279 3 gusting 6 24.4
2019-Sep-15 17:20 275 3 gusting 6 24.4
2019-Sep-15 17:15 261 2 gusting 6 24.4
2019-Sep-15 17:10 268 5 gusting 6 24.4
2019-Sep-15 17:05 188 2 gusting 2 24.4
2019-Sep-15 17:00 192 1 gusting 4 24.4
2019-Sep-15 16:55 192 4 gusting 6 24.4
2019-Sep-15 16:50 209 2 gusting 6 24.4
2019-Sep-15 16:45 203 2 gusting 6 24.4
2019-Sep-15 16:40 206 3 gusting 8 24.4
2019-Sep-15 16:35 207 5 gusting 8 25.0
2019-Sep-15 16:30 198 6 gusting 8 25.0
2019-Sep-15 16:25 177 3 gusting 9 25.0
2019-Sep-15 16:20 192 7 gusting 9 25.0
2019-Sep-15 16:15 158 2 gusting 7 25.0
2019-Sep-15 16:10 203 7 gusting 10 25.0
2019-Sep-15 16:05 178 7 gusting 8 25.0
2019-Sep-15 16:01 186 6 gusting 9 25.6
2019-Sep-15 15:55 192 7 gusting 11 25.6
2019-Sep-15 15:50 197 8 gusting 10 25.6
2019-Sep-15 15:45 203 5 gusting 9 25.6
2019-Sep-15 15:40 171 11 gusting 13 25.6
2019-Sep-15 15:35 190 4 gusting 10 25.6
2019-Sep-15 15:30 159 7 gusting 12 25.6
2019-Sep-15 15:25 205 6 gusting 11 26.1
2019-Sep-15 15:20 200 7 gusting 10 26.1
2019-Sep-15 15:15 190 9 gusting 12 25.6
2019-Sep-15 15:10 190 5 gusting 12 26.1
2019-Sep-15 15:05 215 6 gusting 11 25.6
2019-Sep-15 15:00 207 7 gusting 11 25.6
2019-Sep-15 14:55 209 10 gusting 11 25.6
2019-Sep-15 14:50 194 8 gusting 13 25.6
2019-Sep-15 14:45 169 8 gusting 11 25.6
2019-Sep-15 14:40 195 7 gusting 11 26.1
2019-Sep-15 14:35 221 6 gusting 13 25.6
2019-Sep-15 14:30 190 10 gusting 12 25.6
2019-Sep-15 14:25 193 8 gusting 13 25.6
2019-Sep-15 14:20 189 9 gusting 13 25.6
2019-Sep-15 14:15 177 7 gusting 13 25.6
2019-Sep-15 14:10 208 11 gusting 13 25.6
2019-Sep-15 14:05 209 12 gusting 18 25.6
2019-Sep-15 14:00 164 8 gusting 14 26.1
2019-Sep-15 13:55 177 7 gusting 13 26.1
2019-Sep-15 13:50 205 11 gusting 14 26.1
2019-Sep-15 13:45 201 10 gusting 16 26.1
2019-Sep-15 13:40 211 9 gusting 14 26.1
2019-Sep-15 13:35 205 10 gusting 15 26.7
2019-Sep-15 13:30 201 11 gusting 16 26.7
2019-Sep-15 13:25 173 6 gusting 15 26.7
2019-Sep-15 13:20 208 2 gusting 14 27.2
2019-Sep-15 13:15 208 4 gusting 13 26.7
2019-Sep-15 13:10 204 10 gusting 13 26.7
2019-Sep-15 13:05 167 6 gusting 15 26.7
2019-Sep-15 13:00 185 8 gusting 15 26.7
2019-Sep-15 12:55 165 13 gusting 13 26.7
2019-Sep-15 12:50 139 9 gusting 16 26.7
2019-Sep-15 12:45 192 11 gusting 17 27.2
2019-Sep-15 12:40 159 5 gusting 13 26.7
2019-Sep-15 12:35 215 5 gusting 13 27.2
2019-Sep-15 12:30 184 7 gusting 12 27.2
2019-Sep-15 12:25 173 6 gusting 15 26.7
2019-Sep-15 12:20 226 8 gusting 12 26.7
2019-Sep-15 12:15 219 11 gusting 18 26.7
2019-Sep-15 12:10 212 11 gusting 17 27.2
2019-Sep-15 12:05 190 8 gusting 16 26.7
2019-Sep-15 12:00 169 8 gusting 12 26.7
2019-Sep-15 11:55 199 5 gusting 12 26.7
2019-Sep-15 11:50 178 8 gusting 17 26.7
2019-Sep-15 11:45 202 11 gusting 13 27.2
2019-Sep-15 11:40 192 8 gusting 14 27.2
2019-Sep-15 11:35 156 4 gusting 9 27.2
2019-Sep-15 11:30 178 7 gusting 16 27.2
2019-Sep-15 11:25 184 10 gusting 11 27.2
2019-Sep-15 11:20 223 0 gusting 12 27.2
2019-Sep-15 11:15 188 10 gusting 12 27.2
2019-Sep-15 11:10 197 7 gusting 11 27.2
2019-Sep-15 11:05 186 6 gusting 9 26.7
2019-Sep-15 11:00 186 9 gusting 11 26.7
2019-Sep-15 10:55 215 7 gusting 11 26.7
2019-Sep-15 10:50 227 2 gusting 8 27.2
2019-Sep-15 10:45 268 6 gusting 11 26.7
2019-Sep-15 10:40 235 3 gusting 8 27.2
2019-Sep-15 10:35 176 0 gusting 8 26.7
2019-Sep-15 10:30 197 6 gusting 7 26.7
2019-Sep-15 10:25 202 3 gusting 9 26.7
2019-Sep-15 10:20 210 4 gusting 10 26.7
2019-Sep-15 10:15 186 2 gusting 12 26.1
2019-Sep-15 10:10 189 5 gusting 12 26.1
2019-Sep-15 10:05 207 1 gusting 10 26.1
2019-Sep-15 10:00 209 2 gusting 10 26.1
2019-Sep-15 09:55 168 7 gusting 8 26.1
2019-Sep-15 09:50 166 8 gusting 9 26.1
2019-Sep-15 09:45 165 8 gusting 7 26.1
2019-Sep-15 09:40 244 4 gusting 8 26.1
2019-Sep-15 09:35 185 2 gusting 7 25.6
2019-Sep-15 09:30 148 1 gusting 6 25.6
2019-Sep-15 09:25 199 25.6
2019-Sep-15 09:20 241 3 gusting 7 25.6
2019-Sep-15 09:15 171 6 gusting 9 25.0
2019-Sep-15 09:10 161 6 gusting 9 25.0
2019-Sep-15 09:05 206 6 gusting 10 25.0
2019-Sep-15 09:00 200 5 gusting 8 25.0
2019-Sep-15 08:55 179 2 gusting 5 24.4
2019-Sep-15 08:50 183 2 gusting 5 24.4
2019-Sep-15 08:45 189 1 gusting 5 24.4
2019-Sep-15 08:40 175 3 gusting 5 24.4
2019-Sep-15 08:35 161 4 gusting 5 23.9
2019-Sep-15 08:30 206 4 gusting 4 23.9
2019-Sep-15 08:25 196 3 gusting 5 23.9
2019-Sep-15 08:20 204 2 gusting 5 23.9
2019-Sep-15 08:15 186 4 gusting 5 23.9
2019-Sep-15 08:10 190 2 gusting 4 23.9
2019-Sep-15 08:05 200 2 gusting 4 23.9
2019-Sep-15 08:00 194 1 gusting 3 23.9
2019-Sep-15 07:55 195 2 gusting 2 23.9
2019-Sep-15 07:50 195 1 gusting 2 23.9
2019-Sep-15 07:45 195 1 gusting 2 23.3
2019-Sep-15 07:40 195 1 gusting 3 23.9
2019-Sep-15 07:35 195 3 gusting 4 23.9
2019-Sep-15 07:30 197 1 gusting 1 23.3
2019-Sep-15 07:25 197 23.3
2019-Sep-15 07:20 197 1 gusting 2 23.3
2019-Sep-15 07:15 197 2 gusting 3 23.9
2019-Sep-15 07:10 197 0 gusting 3 23.9
2019-Sep-15 07:05 044 0 gusting 2 24.4
2019-Sep-15 07:00 027 24.4
2019-Sep-15 06:55 24.4
2019-Sep-15 06:50 012 2 gusting 3 23.9
2019-Sep-15 06:45 005 3 gusting 3 23.9
2019-Sep-15 06:40 053 1 gusting 3 23.3
2019-Sep-15 06:35 038 1 gusting 4 23.3
2019-Sep-15 06:30 038 2 gusting 4 22.8
2019-Sep-15 06:25 028 2 gusting 3 22.2
2019-Sep-15 06:20 011 3 gusting 4 21.7
2019-Sep-15 06:15 030 2 gusting 4 21.7
2019-Sep-15 06:10 017 3 gusting 4 21.1
2019-Sep-15 06:05 005 4 gusting 4 21.1
2019-Sep-15 06:00 026 3 gusting 4 21.1
2019-Sep-15 05:55 031 3 gusting 3 21.1
2019-Sep-15 05:50 027 2 gusting 4 21.1
2019-Sep-15 05:45 028 2 gusting 4 20.6
2019-Sep-15 05:40 024 3 gusting 4 20.6
2019-Sep-15 05:35 036 2 gusting 4 20.6
2019-Sep-15 05:30 017 3 gusting 4 20.0
2019-Sep-15 05:25 019 2 gusting 6 20.0
2019-Sep-15 05:20 015 4 gusting 7 20.6
2019-Sep-15 05:15 046 3 gusting 5 20.6
2019-Sep-15 05:10 026 3 gusting 6 20.6
2019-Sep-15 05:05 026 3 gusting 6 20.6
2019-Sep-15 05:00 024 4 gusting 6 20.6
2019-Sep-15 04:55 038 3 gusting 7 20.6
2019-Sep-15 04:50 024 4 gusting 6 20.6
2019-Sep-15 04:45 031 3 gusting 6 21.1
2019-Sep-15 04:40 042 3 gusting 6 21.1
2019-Sep-15 04:35 038 5 gusting 6 21.1
2019-Sep-15 04:30 024 2 gusting 6 21.1
2019-Sep-15 04:25 021 3 gusting 4 20.6
2019-Sep-15 04:20 031 3 gusting 4 20.6
2019-Sep-15 04:15 044 3 gusting 3 20.6
2019-Sep-15 04:10 028 2 gusting 3 20.0
2019-Sep-15 04:05 046 1 gusting 2 20.0
2019-Sep-15 04:00 046 0 gusting 2 20.0
2019-Sep-15 03:55 046 1 gusting 2 20.0
2019-Sep-15 03:50 046 1 gusting 2 20.0
2019-Sep-15 03:45 046 2 gusting 2 20.0
2019-Sep-15 03:40 046 2 gusting 2 20.0
2019-Sep-15 03:35 046 2 gusting 3 20.0
2019-Sep-15 03:30 044 2 gusting 2 20.0
2019-Sep-15 03:25 044 2 gusting 3 20.0
2019-Sep-15 03:20 034 1 gusting 5 20.6
2019-Sep-15 03:15 051 2 gusting 4 20.6
2019-Sep-15 03:10 049 2 gusting 2 20.6
2019-Sep-15 03:05 049 1 gusting 1 20.6
2019-Sep-15 03:00 049 0 gusting 1 20.6
2019-Sep-15 02:55 049 20.6
2019-Sep-15 02:50 049 0 gusting 1 20.6
2019-Sep-15 02:45 049 1 gusting 1 20.6
2019-Sep-15 02:40 049 0 gusting 1 20.6
2019-Sep-15 02:35 049 1 gusting 1 21.1
2019-Sep-15 02:30 049 0 gusting 1 21.1
2019-Sep-15 02:25 049 0 gusting 1 21.1
2019-Sep-15 02:20 049 21.1
2019-Sep-15 02:15 049 0 gusting 0 21.1
2019-Sep-15 02:10 049 21.1
2019-Sep-15 02:05 049 0 gusting 1 21.1
2019-Sep-15 02:00 049 0 gusting 1 21.1
2019-Sep-15 01:55 049 0 gusting 1 21.1
2019-Sep-15 01:50 049 0 gusting 1 21.1
2019-Sep-15 01:45 049 1 gusting 1 21.1
2019-Sep-15 01:40 049 1 gusting 2 21.1
2019-Sep-15 01:35 049 1 gusting 2 21.7
2019-Sep-15 01:30 049 1 gusting 2 21.1
2019-Sep-15 01:25 049 1 gusting 3 21.1
2019-Sep-15 01:20 049 2 gusting 3 21.1
2019-Sep-15 01:15 048 1 gusting 3 21.1
2019-Sep-15 01:10 048 2 gusting 3 21.1
2019-Sep-15 01:05 048 1 gusting 3 21.1
2019-Sep-15 01:00 048 1 gusting 3 21.1
2019-Sep-15 00:55 048 2 gusting 2 21.1
2019-Sep-15 00:50 048 1 gusting 3 21.1
2019-Sep-15 00:45 051 3 gusting 3 21.1
2019-Sep-15 00:40 042 3 gusting 4 21.1
2019-Sep-15 00:35 036 3 gusting 4 21.1
2019-Sep-15 00:30 039 3 gusting 3 21.1
2019-Sep-15 00:25 042 2 gusting 4 21.1
2019-Sep-15 00:20 030 3 gusting 3 21.1
2019-Sep-15 00:15 024 3 gusting 4 21.1
2019-Sep-15 00:10 030 3 gusting 4 21.1
2019-Sep-15 00:05 045 2 gusting 4 21.1
2019-Sep-15 00:00 047 2 gusting 4 21.1
2019-Sep-14 23:55 049 4 gusting 4 21.1
2019-Sep-14 23:50 048 3 gusting 4 21.7
2019-Sep-14 23:45 053 2 gusting 4 21.7
2019-Sep-14 23:40 037 2 gusting 3 21.7
2019-Sep-14 23:35 045 1 gusting 3 22.2
2019-Sep-14 23:30 043 2 gusting 3 22.2
2019-Sep-14 23:25 027 1 gusting 4 21.7
2019-Sep-14 23:20 044 3 gusting 4 21.7
2019-Sep-14 23:15 043 4 gusting 4 21.7
2019-Sep-14 23:10 017 3 gusting 5 21.7
2019-Sep-14 23:05 049 3 gusting 4 21.1
2019-Sep-14 23:00 031 2 gusting 5 21.1
2019-Sep-14 22:55 014 3 gusting 4 21.1
2019-Sep-14 22:50 015 4 gusting 6 21.1
2019-Sep-14 22:45 024 3 gusting 6 21.1
2019-Sep-14 22:40 016 4 gusting 6 21.1
2019-Sep-14 22:35 020 3 gusting 4 21.1
2019-Sep-14 22:30 017 4 gusting 6 21.7
2019-Sep-14 22:25 037 2 gusting 4 21.1
2019-Sep-14 22:20 026 2 gusting 4 21.1
2019-Sep-14 22:15 022 3 gusting 6 21.1
2019-Sep-14 22:10 028 3 gusting 6 21.1
2019-Sep-14 22:05 021 6 gusting 7 21.1
2019-Sep-14 22:00 016 4 gusting 7 21.1